Regional Weather Roundup
Issued by NWS Green Bay, WI

Home | Current Version | Previous Version | Text Only | Print | Product List | Glossary On
Versions: 1 2 3 4 5 6 7 8 9 10 11 12 13 14 15 16 17 18 19 20 21 22 23 24 25 26 27 28 29 30 31 32 33 34 35 36 37 38 39 40 41 42 43 44 45 46 47 48 49 50
000
ASUS43 KGRB 011859
RWRGRB

NORTH-CENTRAL AND NORTHEAST WISCONSIN REGIONAL WEATHER ROUNDUP
NATIONAL WEATHER SERVICE GREEN BAY WI
200 PM CDT WED OCT 01 2014

WIZ005-009-010>012-018-019-012000-
NORTH CENTRAL WISCONSIN

CITY           SKY/WX    TMP DP  RH WIND       PRES   REMARKS
IRONWOOD       NOT AVBL
MANITOWISH WTR NOT AVBL
ARBOR VITAE    NOT AVBL
EAGLE RIVER    NOT AVBL
LAND O LAKES   NOT AVBL
RHINELANDER    PTSUNNY   55  46  71 SE14G25   29.90F
PHILLIPS       NOT AVBL
ANTIGO         NOT AVBL
TOMAHAWK       NOT AVBL
MERRILL        NOT AVBL
$$

WIZ013-073-012000-
NORTHEAST WISCONSIN

CITY           SKY/WX    TMP DP  RH WIND       PRES   REMARKS
IRON MOUNTAIN  CLOUDY    55  51  86 SE12      29.93F
MARINETTE      NOT AVBL
$$

WIZ017-030-035>037-045-012000-
CENTRAL WISCONSIN

CITY           SKY/WX    TMP DP  RH WIND       PRES   REMARKS
MEDFORD        NOT AVBL
WAUSAU         CLOUDY    60  49  66 SE13      29.88S
MOSINEE        PTSUNNY   59  52  77 SE9G18    29.90F
MARSHFIELD     LGT RAIN  59  49  69 SE13      29.88S
WISC RAPIDS    CLOUDY    61  50  67 SE9       29.89F
STEVENS POINT  NOT AVBL
WAUPACA        NOT AVBL
SHAWANO        NOT AVBL
CLINTONVILLE   NOT AVBL
$$

WIZ038-039-048-051-012000-
FOX VALLEY

CITY           SKY/WX    TMP DP  RH WIND       PRES   REMARKS
NWS GREEN BAY  CLOUDY    62  52  69 SE14      29.95F
APPLETON       PTSUNNY   63  52  67 S14       29.93F
OSHKOSH        SUNNY     65  52  62 SE13G21   29.91F
FOND DU LAC    SUNNY     65  51  60 SE15G22   29.91F
$$

WIZ022-050-052-012000-
EAST CENTRAL WISCONSIN

CITY           SKY/WX    TMP DP  RH WIND       PRES   REMARKS
STURGEON BAY   NOT AVBL
MANITOWOC      NOT AVBL
SHEBOYGAN      CLOUDY    59  51  75 SE12G22   29.97F
$$

LMZ563-521-522-541>543-012000-
LAKESHORE

STATION/POSITION TIME  TEMP    WIND        PRES    VSBY  WAVE
                       AIR SEA DIR/SP/G                  HT/PER
                 (UTC) (F)     (DEG/KT/KT) (MB)    (MI)  (FT/S)
SHEBOYGAN LKSHOR 1800   56 54  140/ 18/ 20 1015.9F
KEWAUNEE LKSHORE 1800   55     140/ 12/ 16 1014.5F
TWO RIVERS CG    1800   55                 1015.5      6   2
NORTHPORT PIER   1800   55     150/  9/ 13 1015.9F
N MID LAKE BUOY  1800   55 58  160/ 12/ 14 1017.0F         1/ 3
SISTER BAY LKSHO 1800          170/ 14/ 21   N/A
STURGEON BAY CG  1800   56 55  140/ 11     1017.2      6   1
CHAMBERS ISLAND  1800   59     150/  5/ 10 1015.2F
MENOMINEE LKSHOR 1800   56     160/ 11/ 15 1015.7F
$$



USA.gov is the U.S. government's official web portal to all federal, state and local government web resources and services.